NOAA 16 DEB, 41244

Orbit data source: Space-Track

NOAA 16 DEB, 41244 is space debris in SSO originally from a launch on Thu, 21 Sep 2000 UTC launched from the Air Force Western Test Range (AFWTR). Debris objects in space refer to the collection of defunct objects orbiting the Earth. Examples of debris include non-operational satellites, rocket bodies, and fragments generated from explosions, collisions, or faulty payload assembly.

Loading next visibility...
Identifier
41244, 2000-055EU
Orbit
SSO
Country
Flag of USUS
Related business
Manufacturer
Unknown
Mission
Spacecraft
Bus & Motor
Unknown
Mass
Unknown
Launch date (UTC)
2000-09-21 (26 years ago)
Launch vehicle
Unknown
Launch site
Air Force Western Test Range (AFWTR)
Object type
Payload
Rocket body
Debris
Shape & HBR
Unknown shape, 0.1 m
Radar Cross Section
Medium (>0.1 m² and <1 m²)

Expand to show TLE details & history
Last TLE update: 4 days ago

TLE from 4 days ago
0 NOAA 16 DEB
1 41244U 00055EU  26224.72801957  .00001882  00000-0  63406-3 0  9991
2 41244  99.0452  42.8244 0010729 171.2718 188.8656 14.38300544549435
Epoch: 2026-08-12T17:28Z
TLE epoch observation values (Epoch: 2026-08-12T17:28:20.890Z)
Latitude
-0.00004°
Longitude
179.55957°
Altitude
774.621 km
Speed
7.463 km/s
True Right ascension
02h 51m 17s
True Declination
0° 00' 00"
Sunlit
Object was in daylight at epoch
Visualization orbit readout
Latitude
Unknown
Longitude
Unknown
Altitude
Unknown
Speed
Unknown
Apparent Right ascension
Unknown
Apparent Declination
Unknown
Sunlit
N/A
Visualization observer readout
Local Sidereal Time
15:55:07
Azimuth
Unknown
Elevation
Unknown
Doppler factor
Unknown
Orbital elements
Apogee altitude
768.93 km
Perigee altitude
753.61 km
Semi-major axis
7,139.407 km
Eccentricity
0.00107
Inclination
99.0452°
RAAN
42.8244°
Arg. of periapsis
171.2718°
True anomaly
188.84668°
Mean anomaly
188.8656°
Eccentric anomaly
188.85614°
Mean motion
3.59791 °/min
Orbital period
100.06 mins
BSTAR
0.00063406
Loading maneuver chart data...
Computing Atmospheric mass density...
Loading historical data...
Loading historical data...
Loading historical data...
Loading historical data...
Loading historical data...
Loading historical data...
Loading historical data...

Documentation

Showing up to 5 results
|